Time,TemperatureF,DewpointF,PressureIn,WindDirection,WindDirectionDegrees,WindSpeedMPH,WindSpeedGustMPH,Humidity,HourlyPrecipIn,Conditions,Clouds,dailyrainin,SoftwareType,DateUTC
2013-02-27 06:42:00,17.0,10.0,-100.00,North,5,1.0,-999.0,72,0.00,,,-99.99,,2013-02-27 13:42:00,
2013-02-27 06:52:00,17.0,10.0,-100.00,ESE,105,3.0,4.0,73,0.00,,,-99.99,,2013-02-27 13:52:00,
2013-02-27 07:02:00,16.0,10.0,-100.00,NNW,345,0.0,6.0,74,0.00,,,-99.99,,2013-02-27 14:02:00,
2013-02-27 07:12:00,17.0,10.0,-100.00,ESE,120,2.0,5.0,74,0.00,,,-99.99,,2013-02-27 14:12:00,
2013-02-27 07:21:00,19.0,11.0,-100.00,ESE,115,4.0,7.0,70,0.00,,,-99.99,,2013-02-27 14:21:00,
2013-02-27 07:32:00,20.0,11.0,-100.00,ESE,105,3.0,6.0,67,0.00,,,-99.99,,2013-02-27 14:32:00,
2013-02-27 07:42:00,22.0,12.0,-100.00,ESE,110,2.0,3.0,66,0.00,,,-99.99,,2013-02-27 14:42:00,
2013-02-27 07:52:00,22.0,12.0,-100.00,ESE,115,4.0,7.0,62,0.00,,,-99.99,,2013-02-27 14:52:00,
2013-02-27 08:02:00,24.0,13.0,-100.00,North,355,1.0,6.0,61,0.00,,,-99.99,,2013-02-27 15:02:00,
2013-02-27 08:12:00,26.0,14.0,-100.00,NNE,15,1.0,2.0,59,0.00,,,-99.99,,2013-02-27 15:12:00,
2013-02-27 08:22:00,28.0,14.0,-100.00,East,100,3.0,5.0,55,0.00,,,-99.99,,2013-02-27 15:22:00,
2013-02-27 08:32:00,29.0,14.0,-100.00,SE,135,2.0,4.0,53,0.00,,,-99.99,,2013-02-27 15:32:00,
2013-02-27 08:42:00,30.0,14.0,-100.00,ESE,105,2.0,4.0,50,0.00,,,-99.99,,2013-02-27 15:42:00,
2013-02-27 08:52:00,33.0,15.0,-100.00,SW,215,0.0,2.0,47,0.00,,,-99.99,,2013-02-27 15:52:00,
2013-02-27 09:01:00,34.0,15.0,-100.00,West,275,3.0,4.0,45,0.00,,,-99.99,,2013-02-27 16:01:00,
2013-02-27 09:22:00,34.0,14.0,-100.00,NW,310,2.0,6.0,43,0.00,,,-99.99,,2013-02-27 16:22:00,
2013-02-27 09:32:00,34.0,13.0,-100.00,NW,325,3.0,6.0,42,0.00,,,-99.99,,2013-02-27 16:32:00,
2013-02-27 09:42:00,35.0,14.0,-100.00,NW,315,2.0,4.0,41,0.00,,,-99.99,,2013-02-27 16:42:00,
2013-02-27 09:52:00,38.0,16.0,-100.00,West,275,2.0,4.0,40,0.00,,,-99.99,,2013-02-27 16:52:00,
2013-02-27 10:02:00,39.0,16.0,-100.00,SW,225,1.0,4.0,39,0.00,,,-99.99,,2013-02-27 17:02:00,
2013-02-27 10:11:00,39.0,16.0,-100.00,SW,225,1.0,4.0,39,0.00,,,-99.99,,2013-02-27 17:11:00,
2013-02-27 10:21:00,37.0,15.0,-100.00,SW,230,3.0,6.0,40,0.00,,,-99.99,,2013-02-27 17:21:00,
2013-02-27 10:32:00,38.0,15.0,-100.00,WSW,255,3.0,6.0,38,0.00,,,-99.99,,2013-02-27 17:32:00,
2013-02-27 10:41:00,38.0,14.0,-100.00,WNW,300,4.0,6.0,37,0.00,,,-99.99,,2013-02-27 17:41:00,
2013-02-27 10:52:00,38.0,14.0,-100.00,WNW,300,4.0,6.0,37,0.00,,,-99.99,,2013-02-27 17:52:00,
2013-02-27 11:01:00,37.0,11.0,-100.00,NNW,330,6.0,7.0,33,0.00,,,-99.99,,2013-02-27 18:01:00,
2013-02-27 11:11:00,36.0,10.0,-100.00,WNW,290,5.0,12.0,33,0.00,,,-99.99,,2013-02-27 18:11:00,
2013-02-27 11:22:00,38.0,11.0,-100.00,West,265,4.0,8.0,32,0.00,,,-99.99,,2013-02-27 18:22:00,
2013-02-27 11:32:00,38.0,11.0,-100.00,NNW,330,6.0,9.0,33,0.00,,,-99.99,,2013-02-27 18:32:00,
2013-02-27 11:42:00,37.0,11.0,-100.00,NNW,345,6.0,9.0,33,0.00,,,-99.99,,2013-02-27 18:42:00,
2013-02-27 11:51:00,37.0,11.0,-100.00,NW,320,6.0,10.0,34,0.00,,,-99.99,,2013-02-27 18:51:00,
2013-02-27 12:01:00,37.0,11.0,-100.00,North,0,6.0,9.0,34,0.00,,,-99.99,,2013-02-27 19:01:00,
2013-02-27 12:11:00,38.0,12.0,-100.00,West,280,6.0,8.0,33,0.00,,,-99.99,,2013-02-27 19:11:00,
2013-02-27 12:21:00,37.0,11.0,-100.00,NNW,335,6.0,10.0,32,0.00,,,-99.99,,2013-02-27 19:21:00,
2013-02-27 12:32:00,38.0,11.0,-100.00,WNW,285,5.0,9.0,32,0.00,,,-99.99,,2013-02-27 19:32:00,
2013-02-27 12:42:00,38.0,11.0,-100.00,WNW,285,5.0,9.0,32,0.00,,,-99.99,,2013-02-27 19:42:00,
2013-02-27 12:52:00,38.0,11.0,-100.00,NW,315,7.0,12.0,32,0.00,,,-99.99,,2013-02-27 19:52:00,
2013-02-27 13:01:00,38.0,11.0,-100.00,WNW,300,6.0,11.0,32,0.00,,,-99.99,,2013-02-27 20:01:00,
2013-02-27 13:11:00,37.0,11.0,-100.00,WNW,300,6.0,12.0,33,0.00,,,-99.99,,2013-02-27 20:11:00,
2013-02-27 13:21:00,37.0,10.0,-100.00,WNW,300,7.0,10.0,32,0.00,,,-99.99,,2013-02-27 20:21:00,
2013-02-27 13:32:00,39.0,12.0,-100.00,West,280,6.0,9.0,32,0.00,,,-99.99,,2013-02-27 20:32:00,
2013-02-27 13:42:00,39.0,12.0,-100.00,NW,315,2.0,9.0,33,0.00,,,-99.99,,2013-02-27 20:42:00,
2013-02-27 13:52:00,38.0,12.0,-100.00,North,5,4.0,9.0,33,0.00,,,-99.99,,2013-02-27 20:52:00,
2013-02-27 14:02:00,38.0,12.0,-100.00,NNW,330,6.0,13.0,34,0.00,,,-99.99,,2013-02-27 21:02:00,
2013-02-27 14:11:00,36.0,11.0,-100.00,NW,305,6.0,10.0,35,0.00,,,-99.99,,2013-02-27 21:11:00,
2013-02-27 14:21:00,35.0,11.0,-100.00,West,270,4.0,11.0,36,0.00,,,-99.99,,2013-02-27 21:21:00,
2013-02-27 14:31:00,37.0,12.0,-100.00,WNW,290,6.0,9.0,36,0.00,,,-99.99,,2013-02-27 21:31:00,
2013-02-27 14:42:00,37.0,13.0,-100.00,West,280,7.0,12.0,36,0.00,,,-99.99,,2013-02-27 21:42:00,
2013-02-27 14:51:00,35.0,11.0,-100.00,WNW,290,6.0,12.0,36,0.00,,,-99.99,,2013-02-27 21:51:00,
2013-02-27 15:01:00,35.0,11.0,-100.00,NW,310,6.0,9.0,36,0.00,,,-99.99,,2013-02-27 22:01:00,
2013-02-27 15:11:00,37.0,13.0,-100.00,NW,310,6.0,8.0,36,0.00,,,-99.99,,2013-02-27 22:11:00,
2013-02-27 15:21:00,35.0,12.0,-100.00,NNW,345,6.0,11.0,37,0.00,,,-99.99,,2013-02-27 22:21:00,
2013-02-27 15:31:00,38.0,14.0,-100.00,NNW,335,4.0,11.0,36,0.00,,,-99.99,,2013-02-27 22:31:00,
2013-02-27 15:41:00,38.0,13.0,-100.00,NW,315,6.0,9.0,36,0.00,,,-99.99,,2013-02-27 22:41:00,
2013-02-27 15:51:00,37.0,13.0,-100.00,NNW,340,6.0,9.0,36,0.00,,,-99.99,,2013-02-27 22:51:00,
2013-02-27 16:01:00,37.0,13.0,-100.00,NW,305,7.0,9.0,36,0.00,,,-99.99,,2013-02-27 23:01:00,
2013-02-27 16:11:00,36.0,13.0,-100.00,NNW,340,8.0,12.0,37,0.00,,,-99.99,,2013-02-27 23:11:00,
2013-02-27 16:21:00,35.0,12.0,-100.00,NW,315,7.0,11.0,37,0.00,,,-99.99,,2013-02-27 23:21:00,
2013-02-27 16:32:00,36.0,13.0,-100.00,NW,325,9.0,12.0,38,0.00,,,-99.99,,2013-02-27 23:32:00,
2013-02-27 16:42:00,35.0,13.0,-100.00,NNW,340,6.0,12.0,39,0.00,,,-99.99,,2013-02-27 23:42:00,
2013-02-27 16:52:00,34.0,13.0,-100.00,NW,320,9.0,12.0,40,0.00,,,-99.99,,2013-02-27 23:52:00,
2013-02-27 17:01:00,35.0,13.0,-100.00,North,350,7.0,11.0,41,0.00,,,-99.99,,2013-02-28 00:01:00,
2013-02-27 17:11:00,34.0,13.0,-100.00,NNW,335,7.0,11.0,41,0.00,,,-99.99,,2013-02-28 00:11:00,
2013-02-27 17:21:00,33.0,13.0,-100.00,North,350,5.0,9.0,43,0.00,,,-99.99,,2013-02-28 00:21:00,
2013-02-27 17:32:00,32.0,13.0,-100.00,NW,310,5.0,7.0,44,0.00,,,-99.99,,2013-02-28 00:32:00,
2013-02-27 17:42:00,31.0,13.0,-100.00,NNW,330,6.0,8.0,45,0.00,,,-99.99,,2013-02-28 00:42:00,
2013-02-27 17:51:00,31.0,13.0,-100.00,NW,325,4.0,8.0,46,0.00,,,-99.99,,2013-02-28 00:51:00,
2013-02-27 18:01:00,30.0,13.0,-100.00,North,350,3.0,6.0,48,0.00,,,-99.99,,2013-02-28 01:01:00,
2013-02-27 18:10:00,29.0,13.0,-100.00,NNW,340,4.0,6.0,50,0.00,,,-99.99,,2013-02-28 01:10:00,
2013-02-27 18:11:00,29.0,13.0,-100.00,NW,325,3.0,6.0,49,0.00,,,-99.99,,2013-02-28 01:11:00,
2013-02-27 18:21:00,29.0,13.0,-100.00,NNW,340,4.0,6.0,50,0.00,,,-99.99,,2013-02-28 01:21:00,
2013-02-27 18:31:00,29.0,13.0,-100.00,NNW,340,4.0,6.0,50,0.00,,,-99.99,,2013-02-28 01:31:00,
2013-02-27 18:41:00,29.0,13.0,-100.00,NNW,340,4.0,6.0,50,0.00,,,-99.99,,2013-02-28 01:41:00,
2013-02-27 18:51:00,29.0,13.0,-100.00,NNW,340,4.0,6.0,50,0.00,,,-99.99,,2013-02-28 01:51:00,
2013-02-27 19:01:00,29.0,13.0,-100.00,NNW,340,4.0,6.0,50,0.00,,,-99.99,,2013-02-28 02:01:00,